Home   Weather   Racine   Past weeks

Flag for USA Past Weather in Racine, Wisconsin, USA — Yesterday and Last 2 Weeks

Now
58 °F

Partly sunny.


Feels Like: 54 °F
Forecast: 60 / 65 °F
Wind: 18 mph from North

Location: Batten International Airport

Current Time: Sep 29, 2016 at 8:46:33 AM

Latest Report: Sep 29, 2016 at 7:53 AM


Visibility: 10 mi

Pressure: 30.21 "Hg

Humidity: 90%

Dew Point: 55 °F

Location of RacineLocation

Past Weather in Racine — Graph

°F

Racine Temperature Yesterday

Maximum temperature yesterday: 59 °F (at 1:53 PM)
Minimum temperature yesterday: 50 °F (at 1:53 AM)
Average temperature yesterday: 55 °F

High & Low Weather Summary for the Past Weeks

 TemperatureHumidityPressure
High87 °F (Sep 19, 1:53 PM)97% (Sep 20, 3:53 AM)30.29 "Hg (Sep 20, 3:53 AM)
Low50 °F (Sep 27, 5:53 AM)25% (Sep 19, 2:53 PM)29.73 "Hg (Sep 27, 1:53 PM)
Average66 °F75%30.04 "Hg
* Reported Sep 14 6:53 AM — Sep 29 6:53 AM, Racine, Weather by CustomWeather, © 2016

Note: Actual official high and low records may vary slightly from our data, if they occured in-between our weather recording intervals... More about our weather records

Advertising

Racine Weather History for the Previous 24 Hours

Scroll right to see more
 ConditionsComfort  
Time TempWeatherWind HumidityBarometerVisibility
6:53 AM
Thu, Sep 29
57 °FPartly sunny.17 mph93%30.20 "Hg10 mi
5:53 AM57 °FLow clouds.18 mph93%30.18 "Hg10 mi
4:53 AM57 °FLow clouds.20 mph93%30.17 "Hg10 mi
3:53 AM57 °FLow clouds.21 mph93%30.16 "Hg10 mi
3:03 AM57 °FPassing clouds.17 mph93%30.14 "Hg10 mi
2:53 AM57 °FPassing clouds.17 mph93%30.14 "Hg10 mi
1:53 AM57 °FLow clouds.17 mph93%30.14 "Hg10 mi
12:53 AM57 °FPassing clouds.21 mph90%30.14 "Hg10 mi
11:53 PM
Wed, Sep 28
57 °FPassing clouds.16 mph87%30.14 "Hg10 mi
10:53 PM57 °FPassing clouds.17 mph87%30.14 "Hg10 mi
9:53 PM58 °FOvercast.18 mph84%30.13 "Hg10 mi
8:53 PM58 °FOvercast.20 mph81%30.12 "Hg10 mi
7:53 PM58 °FLight rain. Overcast.21 mph78%30.12 "Hg10 mi
6:53 PM57 °FLight rain. Overcast.10 mph74%30.13 "Hg10 mi
5:53 PM57 °FSunny.20 mph78%30.08 "Hg10 mi
4:53 PM58 °FSunny.17 mph75%30.07 "Hg10 mi
3:53 PM58 °FScattered clouds.16 mph78%30.04 "Hg10 mi
2:53 PM57 °FOvercast.13 mph78%30.01 "Hg10 mi
1:53 PM59 °FOvercast.15 mph72%29.98 "Hg10 mi
12:53 PM58 °FBroken clouds.14 mph78%29.98 "Hg10 mi
11:53 AM55 °FOvercast.16 mph80%29.96 "Hg10 mi
10:53 AM54 °FMostly cloudy.15 mph83%29.94 "Hg10 mi
10:02 AM54 °FScattered clouds.13 mph83%29.92 "Hg10 mi
9:53 AM54 °FScattered clouds.17 mph83%29.92 "Hg10 mi
8:53 AM52 °FMostly cloudy.14 mph86%29.89 "Hg10 mi
8:04 AM52 °FLight rain. Cloudy.8 mph89%29.87 "Hg10 mi
Weather by CustomWeather, © 2016

See weather overviewHow to use our weather pages